Zurück zum Katalog

COSMOS 2251 DEB

AktivLEO
NORAD 34346·DEBRIS·🇷🇺 Russia

Gestartet Jun 16, 1993 von Plesetsk Cosmodrome

Loading…

Nächste Überflüge (nächste 24 Stunden)

TLE

AktuellSource: Space-Track

Epoche: Sep 14, 2026, 06:27 UTC

1 34346U 93036PU  26257.26896106  .00000820  00000-0  47160-3 0  9992
2 34346  73.9939 193.7287 0208358 310.6573 201.3788 14.00579702892665

Verfolge COSMOS 2251 DEB in Echtzeit mit AllMySat

Download on the App Store